Torna al catalogo

STARLINK-32353

AttivoComunicazioniVLEO
NORAD 61587·PAYLOAD·🇺🇸 United States

Lanciato Oct 18, 2024 da Cape Canaveral Space Force Station

Loading…

Prossimi Passaggi (prossime 24 ore)

TLE

AggiornatoSource: CelesTrak SupGP

Epoca: Sep 15, 2026, 02:01 UTC

1 61587C 24187P   26258.08451389 -.00003337  00000+0 -98567-4 0  2584
2 61587  53.1573 261.0394 0001139 101.1249 164.6233 15.34401293    18

Traccia STARLINK-32353 in tempo reale con AllMySat

Download on the App Store